Showing default

BOTSAT-1, 63216

Orbit data source: Space-Track

BOTSAT-1, 63216 is a Batswana payload satellite in SSO that was launched on Sat, 15 Mar 2025 UTC via an FALCON 9 launch vehicle from the Air Force Western Test Range (AFWTR). Payload-class satellites include a variety of spacecraft equipped with specific instruments for various scientific and technological missions. These include communications satellites like Starlink; space stations such as the ISS; scientific satellites like the Hubble; Earth observation satellites from companies like Planet Labs, Umbra, and HawkEye 360; GPS; miniature CubeSats for education and research; and military/defense satellites.

Loading next visibility...
Identifier
63216, 2025-052G
Orbit
SSO
Country
Flag of BWBW / BWA
Related business
Manufacturer
Endurosat
Mission
Operational Amateur Technology
Bus & Motor
CUBESAT 3U, Unknown motor
Mass
5 kg wet, 5 kg dry
Launch date (UTC)
Icon of a cake. It is the launch day of the satellite!2025-03-15 (1 year ago)
Launch vehicle
FALCON 9
Launch site
Air Force Western Test Range (AFWTR)
Object type
Payload
Rocket body
Debris
Shape & HBR
Box + 4 Pan, 14.5 m
Radar Cross Section
0.035 m², Medium (>0.1 m² and < 1m²)

Expand to show TLE details & history
Last TLE update: 10 hours ago

TLE from 10 hours ago
0 BOTSAT-1
1 63216U 25052G   26074.47815869  .00009552  00000-0  38001-3 0  9995
2 63216  97.4001 329.3080 0004376  90.0767 270.0972 15.25474776 55662
Epoch: 2026-03-15T11:28Z
TLE epoch observation values (Epoch: 2026-03-15T11:28:32.910Z)
Latitude
-0.0001°
Longitude
-15.91352°
Altitude
492.454 km
Speed
7.619 km/s
True Right ascension
21h 57m 13s
True Declination
0° 00' 00"
Sunlit
Object was in daylight at epoch
Visualization orbit readout
Latitude
Unknown
Longitude
Unknown
Altitude
Unknown
Speed
Unknown
Apparent Right ascension
Unknown
Apparent Declination
Unknown
Sunlit
N/A
Visualization observer readout
Local Sidereal Time
02:26:20
Azimuth
Unknown
Elevation
Unknown
Doppler factor
Unknown
Orbital elements
Apogee altitude
489.322 km
Perigee altitude
483.315 km
Semi-major axis
6,864.455 km
Eccentricity
0.00044
Inclination
97.4001°
RAAN
329.308°
Arg. of periapsis
90.0767°
True anomaly
270.04705°
Mean anomaly
270.0972°
Eccentric anomaly
270.07213°
Mean motion
3.81623 °/min
Orbital period
94.33 mins
BSTAR
0.00038001
Loading maneuver chart data...
Computing Atmospheric mass density...
Loading historical data...
Loading historical data...
Loading historical data...
Loading historical data...
Loading historical data...
Loading historical data...
Loading historical data...

Documentation

Showing up to 5 results
|